TimeEDT,TemperatureF,Dew PointF,Humidity,Sea Level PressureIn,VisibilityMPH,Wind Direction,Wind SpeedMPH,Gust SpeedMPH,PrecipitationIn,Events,Conditions,WindDirDegrees,DateUTC
12:06 AM,62.6,60.8,94,30.18,5.0,Calm,Calm,-,N/A,,Clear,0,2013-08-21 04:06:00
12:48 AM,60.8,60.8,100,30.18,1.5,Calm,Calm,-,N/A,,Clear,0,2013-08-21 04:48:00
12:54 AM,61.0,60.1,97,30.17,1.2,Calm,Calm,-,N/A,,Clear,0,2013-08-21 04:54:00
12:59 AM,62.6,60.8,94,30.18,3.0,Calm,Calm,-,N/A,,Clear,0,2013-08-21 04:59:00
1:09 AM,60.8,60.8,100,30.18,1.8,Calm,Calm,-,N/A,,Clear,0,2013-08-21 05:09:00
1:18 AM,62.6,60.8,94,30.18,3.0,Calm,Calm,-,N/A,,Clear,0,2013-08-21 05:18:00
1:34 AM,60.8,60.8,100,30.18,1.8,Calm,Calm,-,N/A,,Clear,0,2013-08-21 05:34:00
1:45 AM,60.8,60.8,100,30.18,0.8,Calm,Calm,-,N/A,,Clear,0,2013-08-21 05:45:00
1:54 AM,59.0,59.0,100,30.16,0.2,Calm,Calm,-,N/A,Fog,Fog,0,2013-08-21 05:54:00
2:03 AM,60.8,59.0,94,30.17,1.0,Calm,Calm,-,N/A,,Mist,0,2013-08-21 06:03:00
2:06 AM,60.8,59.0,94,30.17,2.0,Calm,Calm,-,N/A,,Partly Cloudy,0,2013-08-21 06:06:00
2:15 AM,60.8,59.0,94,30.17,1.0,Calm,Calm,-,N/A,,Mist,0,2013-08-21 06:15:00
2:22 AM,60.8,59.0,94,30.18,0.5,Calm,Calm,-,N/A,Fog,Fog,0,2013-08-21 06:22:00
2:29 AM,59.0,57.2,94,30.18,0.2,Calm,Calm,-,N/A,Fog,Fog,0,2013-08-21 06:29:00
2:45 AM,59.0,57.2,94,30.17,0.8,Calm,Calm,-,N/A,,Mist,0,2013-08-21 06:45:00
2:50 AM,60.8,59.0,94,30.17,1.2,Calm,Calm,-,N/A,,Scattered Clouds,0,2013-08-21 06:50:00
2:54 AM,59.0,59.0,100,30.16,1.5,Calm,Calm,-,N/A,,Scattered Clouds,0,2013-08-21 06:54:00
2:59 AM,59.0,57.2,94,30.17,3.0,Calm,Calm,-,N/A,,Partly Cloudy,0,2013-08-21 06:59:00
3:06 AM,57.2,57.2,100,30.17,1.8,Calm,Calm,-,N/A,,Clear,0,2013-08-21 07:06:00
3:09 AM,57.2,57.2,100,30.17,1.0,Calm,Calm,-,N/A,,Mist,0,2013-08-21 07:09:00
3:16 AM,57.2,57.2,100,30.17,0.5,Calm,Calm,-,N/A,Fog,Fog,0,2013-08-21 07:16:00
3:26 AM,57.2,57.2,100,30.17,0.2,Calm,Calm,-,N/A,Fog,Fog,0,2013-08-21 07:26:00
3:36 AM,59.0,57.2,94,30.17,0.5,Calm,Calm,-,N/A,Fog,Fog,0,2013-08-21 07:36:00
3:42 AM,59.0,57.2,94,30.17,1.5,Calm,Calm,-,N/A,,Scattered Clouds,0,2013-08-21 07:42:00
3:45 AM,59.0,57.2,94,30.17,3.0,Calm,Calm,-,N/A,,Scattered Clouds,0,2013-08-21 07:45:00
3:54 AM,59.0,57.9,96,30.15,3.0,Calm,Calm,-,N/A,,Partly Cloudy,0,2013-08-21 07:54:00
3:58 AM,59.0,57.2,94,30.17,1.2,Calm,Calm,-,N/A,,Partly Cloudy,0,2013-08-21 07:58:00
4:00 AM,59.0,57.2,94,30.17,0.8,Calm,Calm,-,N/A,,Mist,0,2013-08-21 08:00:00
4:11 AM,59.0,57.2,94,30.16,1.2,Calm,Calm,-,N/A,,Scattered Clouds,0,2013-08-21 08:11:00
4:16 AM,59.0,57.2,94,30.16,0.8,Calm,Calm,-,N/A,,Mist,0,2013-08-21 08:16:00
4:24 AM,57.2,57.2,100,30.16,0.2,Calm,Calm,-,N/A,Fog,Fog,0,2013-08-21 08:24:00
4:41 AM,57.2,57.2,100,30.16,1.0,Calm,Calm,-,0.01,,Mist,0,2013-08-21 08:41:00
4:54 AM,57.0,55.9,96,30.15,0.2,Calm,Calm,-,0.01,Fog,Fog,0,2013-08-21 08:54:00
4:57 AM,57.2,55.4,94,30.16,0.5,Calm,Calm,-,N/A,Fog,Fog,0,2013-08-21 08:57:00
5:05 AM,57.2,57.2,100,30.16,1.2,Calm,Calm,-,N/A,,Partly Cloudy,0,2013-08-21 09:05:00
5:18 AM,57.2,57.2,100,30.16,2.0,Calm,Calm,-,N/A,,Clear,0,2013-08-21 09:18:00
5:34 AM,57.2,57.2,100,30.17,4.0,Calm,Calm,-,N/A,,Clear,0,2013-08-21 09:34:00
5:52 AM,57.2,57.2,100,30.17,1.8,Calm,Calm,-,N/A,,Clear,0,2013-08-21 09:52:00
5:54 AM,57.9,57.0,97,30.16,1.5,Calm,Calm,-,N/A,,Clear,0,2013-08-21 09:54:00
6:15 AM,57.2,57.2,100,30.17,1.0,Calm,Calm,-,N/A,,Scattered Clouds,0,2013-08-21 10:15:00
6:21 AM,57.2,57.2,100,30.17,3.0,Calm,Calm,-,N/A,,Mostly Cloudy,0,2013-08-21 10:21:00
6:31 AM,59.0,57.2,94,30.17,2.5,Calm,Calm,-,N/A,,Mostly Cloudy,0,2013-08-21 10:31:00
6:54 AM,59.0,57.9,96,30.17,1.5,Calm,Calm,-,N/A,,Mostly Cloudy,0,2013-08-21 10:54:00
7:05 AM,59.0,57.2,94,30.18,0.8,Calm,Calm,-,N/A,,Scattered Clouds,0,2013-08-21 11:05:00
7:15 AM,59.0,57.2,94,30.18,1.5,Calm,Calm,-,N/A,,Partly Cloudy,0,2013-08-21 11:15:00
7:25 AM,59.0,57.2,94,30.19,2.5,Calm,Calm,-,N/A,,Clear,0,2013-08-21 11:25:00
7:54 AM,62.1,60.1,93,30.18,2.0,Calm,Calm,-,N/A,,Clear,0,2013-08-21 11:54:00
8:15 AM,64.4,60.8,88,30.19,3.0,Calm,Calm,-,N/A,,Clear,0,2013-08-21 12:15:00
8:54 AM,68.0,64.0,87,30.19,6.0,Calm,Calm,-,N/A,,Clear,0,2013-08-21 12:54:00
9:54 AM,73.0,64.9,76,30.19,9.0,Calm,Calm,-,N/A,,Clear,0,2013-08-21 13:54:00
10:54 AM,78.1,64.9,64,30.19,10.0,Variable,3.5,-,N/A,,Scattered Clouds,0,2013-08-21 14:54:00
11:54 AM,79.0,66.0,64,30.17,10.0,East,4.6,-,N/A,,Mostly Cloudy,100,2013-08-21 15:54:00
12:54 PM,80.1,64.9,60,30.17,10.0,West,3.5,-,N/A,,Mostly Cloudy,260,2013-08-21 16:54:00
1:54 PM,82.0,66.0,58,30.15,10.0,SE,4.6,-,N/A,,Partly Cloudy,130,2013-08-21 17:54:00
2:54 PM,80.1,66.0,62,30.12,10.0,SE,5.8,-,N/A,,Clear,130,2013-08-21 18:54:00
3:54 PM,79.0,66.0,64,30.10,10.0,Calm,Calm,-,N/A,,Clear,0,2013-08-21 19:54:00
4:54 PM,78.1,66.9,68,30.11,10.0,SE,4.6,-,0.00,Rain,Light Rain,140,2013-08-21 20:54:00
5:54 PM,73.9,69.1,85,30.10,8.0,Calm,Calm,-,0.00,Rain,Light Rain,0,2013-08-21 21:54:00
6:54 PM,73.0,69.1,87,30.09,9.0,SE,4.6,-,0.01,,Partly Cloudy,140,2013-08-21 22:54:00
7:54 PM,72.0,68.0,87,30.08,8.0,SSE,3.5,-,N/A,,Clear,160,2013-08-21 23:54:00
8:54 PM,69.1,66.0,90,30.09,10.0,Calm,Calm,-,N/A,,Clear,0,2013-08-22 00:54:00
9:54 PM,68.0,64.0,87,30.10,10.0,SSE,3.5,-,N/A,,Clear,150,2013-08-22 01:54:00
10:54 PM,66.9,63.0,87,30.11,10.0,Calm,Calm,-,N/A,,Clear,0,2013-08-22 02:54:00
11:54 PM,63.0,62.1,97,30.12,10.0,Calm,Calm,-,N/A,,Clear,0,2013-08-22 03:54:00